[[{"header":{"parameterUnit":"m.s-1","parameterCategory":1,"la1":30.2991,"la2":30.254,"lo1":-89.0895,"lo2":-89.0444,"dy":0.0017,"dx":0.0017,"nx":28,"ny":28,"refTime":"2025-01-16T03:00:00:Z","depth":0,"parameterNumber":2,"parameterNumberName":"U-component_of_WINDS"},"data":[0,0,0,0,0,0,0,0,0,0,0,0,0,0,0,0,0,0,0,0,0,0,0,0,0,0,0,0,0,0,0,0,0,0,0,0,0,0,0,0,0,0,0,0,0,0,0,0,0,0,0,0,0,0,0,0,0,0,-0.9879,-0.9879,0,-0.9895,-0.9895,-0.9896,-0.9885,-0.9884,-0.9884,-0.9883,-0.99,-0.9901,-0.9902,0,0,0,0,0,0,0,0,0,0,0,0,0,-0.984,-0.9841,-0.9879,-0.9879,-0.988,-0.9895,-0.9895,-0.9896,-0.9885,-0.9884,-0.9884,-0.9883,-0.99,-0.9901,-0.9902,0,0,0,0,0,0,0,0,0,0,0,0,0,-0.9856,-0.9841,-0.9879,-0.9876,-0.9876,-0.9895,-0.9895,-0.9896,-0.9885,-0.9884,-0.9883,-0.9883,-0.9899,-0.9901,-0.9902,-0.9925,0,0,-0.9906,-0.9907,0,0,0,0,0,0,0,0,-0.9855,-0.9858,-0.9876,-0.9876,-0.9876,-0.9887,-0.9888,-0.9906,-0.9885,-0.9882,-0.9883,-0.9882,-0.9896,-0.9898,-0.9903,-0.9926,-0.9927,-0.9906,-0.9907,-0.9908,-0.9908,0,0,0,0,0,0,0,-0.9854,-0.9857,-0.9886,-0.9877,-0.9877,-0.9874,-0.9876,-0.9891,-0.9893,-0.9882,-0.9881,-0.9883,-0.9896,-0.9901,-0.9903,-0.9927,-0.9906,-0.9908,-0.9908,-0.9909,-0.997,-0.9971,0,0,0,0,0,0,-0.9853,-0.9856,-0.9885,-0.9886,-0.9864,-0.9875,-0.9877,-0.9884,-0.9893,-0.9893,-0.9884,-0.9882,-0.9899,-0.9901,-0.9903,-0.9931,-0.9908,-0.9909,-0.991,-0.9969,-0.997,-0.9971,0,0,0,0,0,0,-0.9853,-0.9856,-0.9884,-0.9871,-0.9874,-0.9877,-0.9885,-0.9885,-0.989,-0.9894,-0.9894,-0.9889,-0.9899,-0.9902,-0.992,-0.9932,-0.991,-0.9911,-0.9968,-0.997,-0.9971,-0.9987,0,0,0,0,0,0,-0.9852,-0.9856,-0.9865,-0.9871,-0.9875,-0.9901,-0.9886,-0.9886,-0.9893,-0.9891,-0.9899,-0.9899,-0.9899,-0.9918,-0.9921,-0.9933,-0.9912,-0.9967,-0.9969,-0.997,-0.9986,-0.9989,-0.9992,0,0,0,0,0,-0.985,-0.9869,-0.9865,-0.9869,-0.9886,-0.9901,-0.9904,-0.9902,-0.9894,-0.9903,-0.9905,-0.9899,-0.993,-0.992,-0.9924,-0.9936,-0.9967,-0.9969,-0.997,-0.9984,-0.9988,-0.9992,0,0,0,0,0,0,-0.9864,-0.987,-0.9866,-0.9887,-0.9894,-0.9899,-0.9911,-0.9906,-0.9916,-0.9914,-0.9912,-0.9914,-0.9933,-0.9936,-0.9925,-0.9959,-0.9947,-0.9949,-0.9956,-0.996,-0.9963,-0.9962,-0.9913,0,0,0,0,0,-0.987,-0.9881,-0.9885,-0.9904,-0.9907,-0.9909,-0.9915,-0.9913,-0.992,-0.9923,-0.9927,-0.9934,-0.9945,-0.9953,-0.9963,-0.9986,-0.9987,-0.9996,-0.9999,-1.0002,-1.0004,-1.0017,-1.0021,-0.9977,-0.9977,-0.9977,0,0,-0.9881,-0.9886,-0.9893,-0.9907,-0.9912,-0.9924,-0.9911,-0.9925,-0.9934,-0.9925,-0.9943,-0.9946,-0.9953,-0.9974,-0.9983,-0.9977,-1.0016,-1.0004,-1.0006,-1.0007,-1.0019,-1.0023,-1.0027,-0.9978,-0.9978,-0.9978,0,0,-0.9909,-0.9913,-0.9929,-0.9934,-0.9942,-0.9942,-0.9946,-0.9952,-0.9954,-0.9971,-0.9965,-0.9976,-0.9995,-1.0001,-1.0006,-1.0035,-1.0031,-1.0039,-1.0055,-1.0067,-1.007,-1.0073,-1.0084,-1.0088,-1.0041,-1.0041,-1.0041,0,-0.9923,-0.9941,-0.9938,-0.9952,-0.9958,-0.995,-0.9967,-0.9972,-0.9982,-0.9987,-0.998,-1.0004,-1.0008,-1.003,-1.0037,-1.0042,-1.0046,-1.0039,-1.007,-1.0073,-1.0076,-1.0086,-1.009,-1.0042,-1.0042,-1.0042,-1.0042,0,-0.9958,-0.997,-0.9982,-0.9993,-1.0,-1.0015,-1.0014,-1.0022,-1.0019,-1.0021,-1.0038,-1.0043,-1.0055,-1.006,-1.0057,-1.0081,-1.0077,-1.007,-1.0058,-1.0081,-1.0091,-1.0095,-1.0044,-1.0043,-1.0043,-1.0043,0,0,-0.9996,-1.0004,-1.0008,-1.0013,-1.002,-1.003,-1.0044,-1.0055,-1.0062,-1.0069,-1.0082,-1.0098,-1.0091,-1.0097,-1.0095,-1.0106,-1.0129,-1.0097,-1.0097,-1.0103,-1.0156,-1.0162,-1.0167,-1.0125,-1.0126,-1.0126,-1.0155,0,-1.0025,-1.005,-1.0047,-1.0072,-1.0083,-1.0075,-1.0088,-1.0094,-1.0095,-1.0105,-1.0106,-1.0118,-1.0108,-1.0112,-1.0122,-1.0124,-1.0139,-1.0122,-1.0137,-1.0137,-1.0136,-1.0171,-1.0178,-1.0205,-1.0159,-1.016,-1.016,0,-1.0062,-1.007,-1.0095,-1.0101,-1.0106,-1.0117,-1.0127,-1.0136,-1.0143,-1.0143,-1.0149,-1.0145,-1.016,-1.0146,-1.0167,-1.0155,-1.016,-1.0162,-1.0163,-1.0165,-1.0151,-1.0175,-1.0214,-1.0218,-1.0166,-1.0166,-1.0165,0,-1.0088,-1.0105,-1.0123,-1.0127,-1.0133,-1.0141,-1.0145,-1.015,-1.0157,-1.0165,-1.0169,-1.0179,-1.0185,-1.0192,-1.0191,-1.0181,-1.0212,-1.0198,-1.0213,-1.0213,-1.022,-1.022,-1.0261,-1.0223,-1.0222,-1.0222,-1.0222,0,-1.0121,-1.0137,-1.0135,-1.0146,-1.0163,-1.016,-1.0177,-1.0179,-1.0184,-1.0195,-1.0189,-1.0199,-1.0196,-1.0207,-1.0206,-1.0223,-1.0225,-1.0226,-1.0226,-1.0227,-1.0227,-1.0232,-1.023,-1.0223,-1.0223,-1.0223,-1.0223,0,-1.0154,-1.0153,-1.0172,-1.0176,-1.0177,-1.019,-1.0193,-1.0204,-1.0204,-1.0218,-1.0221,-1.0222,-1.0233,-1.0232,-1.0246,-1.0245,-1.0266,-1.0263,-1.0264,-1.0264,-1.0279,-1.0278,-1.0325,-1.0331,-1.0288,-1.0288,-1.0288,0,-1.0176,-1.0188,-1.0193,-1.02,-1.0203,-1.0214,-1.0221,-1.0218,-1.0225,-1.0232,-1.0242,-1.0253,-1.0262,-1.0281,-1.0283,-1.0293,-1.029,-1.0306,-1.0292,-1.0293,-1.0291,-1.0291,-1.0292,-1.0309,-1.031,-1.031,-1.0311,0,-1.0214,-1.0213,-1.0223,-1.0232,-1.024,-1.0247,-1.0254,-1.026,-1.0257,-1.0265,-1.0277,-1.0284,-1.0297,-1.0309,-1.0318,-1.0321,-1.0316,-1.0315,-1.0319,-1.0321,-1.0321,-1.0322,-1.0273,-1.0314,-1.0314,-1.0314,-1.0313,-1.0313,-1.0243,-1.0253,-1.0258,-1.0269,-1.0274,-1.028,-1.029,-1.0291,-1.03,-1.0311,-1.0308,-1.0322,-1.0327,-1.0339,-1.0343,-1.0354,-1.0348,-1.0354,-1.0355,-1.0357,-1.0359,-1.0319,-1.0355,-1.0355,-1.0355,-1.0355,-1.0355,0,-1.0282,-1.0285,-1.0294,-1.0304,-1.0312,-1.0305,-1.0312,-1.032,-1.0332,-1.0337,-1.0346,-1.0359,-1.037,-1.0372,-1.0382,-1.039,-1.0388,-1.0393,-1.0393,-1.0394,-1.0363,-1.0359,-1.0395,-1.0395,-1.0394,-1.0394,-1.0394,-1.0394,-1.0303,-1.0321,-1.032,-1.0339,-1.0341,-1.0355,-1.0359,-1.0365,-1.0369,-1.0384,-1.0393,-1.0394,-1.0398,-1.0408,-1.0418,-1.0418,-1.0422,-1.0429,-1.0428,-1.04,-1.0396,-1.0392,-1.0388,-1.0429,-1.0429,-1.0458,-1.0458,-1.0458]},{"header":{"parameterUnit":"m.s-1","parameterCategory":1,"la1":30.2991,"la2":30.254,"lo1":-89.0895,"lo2":-89.0444,"dy":0.0017,"dx":0.0017,"nx":28,"ny":28,"refTime":"2025-01-16T03:00:00:Z","depth":0,"parameterNumber":3,"parameterNumberName":"V-component_of_WINDS"},"data":[0,0,0,0,0,0,0,0,0,0,0,0,0,0,0,0,0,0,0,0,0,0,0,0,0,0,0,0,0,0,0,0,0,0,0,0,0,0,0,0,0,0,0,0,0,0,0,0,0,0,0,0,0,0,0,0,0,0,-1.3825,-1.3826,0,-1.3893,-1.3894,-1.3894,-1.3887,-1.3886,-1.3885,-1.3884,-1.3953,-1.3955,-1.3958,0,0,0,0,0,0,0,0,0,0,0,0,0,-1.3689,-1.3691,-1.3825,-1.3826,-1.3827,-1.3893,-1.3894,-1.3895,-1.3887,-1.3886,-1.3885,-1.3884,-1.3952,-1.3955,-1.3958,0,0,0,0,0,0,0,0,0,0,0,0,0,-1.3751,-1.3692,-1.3825,-1.3831,-1.3832,-1.3893,-1.3894,-1.3895,-1.3888,-1.3886,-1.3885,-1.3883,-1.3951,-1.3955,-1.3959,-1.4017,0,0,-1.3972,-1.3974,0,0,0,0,0,0,0,0,-1.3748,-1.3756,-1.3829,-1.3831,-1.3832,-1.388,-1.3871,-1.3936,-1.3888,-1.3867,-1.3884,-1.3882,-1.393,-1.3936,-1.3952,-1.402,-1.4023,-1.3972,-1.3975,-1.3977,-1.3978,0,0,0,0,0,0,0,-1.3743,-1.3753,-1.3852,-1.3831,-1.3832,-1.383,-1.3837,-1.3883,-1.3906,-1.3868,-1.3868,-1.3876,-1.393,-1.3948,-1.3953,-1.4024,-1.3972,-1.3976,-1.3978,-1.398,-1.4144,-1.4145,0,0,0,0,0,0,-1.3738,-1.375,-1.385,-1.3854,-1.3785,-1.3834,-1.3842,-1.3866,-1.3906,-1.391,-1.3878,-1.3876,-1.3941,-1.3948,-1.3956,-1.4027,-1.3976,-1.398,-1.3983,-1.4142,-1.4144,-1.4146,0,0,0,0,0,0,-1.3735,-1.3747,-1.3847,-1.3802,-1.3814,-1.3838,-1.3865,-1.3869,-1.3886,-1.3913,-1.3917,-1.3891,-1.394,-1.395,-1.4002,-1.4029,-1.3982,-1.3986,-1.414,-1.4142,-1.4145,-1.4168,0,0,0,0,0,0,-1.3731,-1.3746,-1.3768,-1.3802,-1.3817,-1.3892,-1.3867,-1.3871,-1.3893,-1.3892,-1.3927,-1.3931,-1.394,-1.3996,-1.4006,-1.4034,-1.3989,-1.4137,-1.4141,-1.4144,-1.4165,-1.4172,-1.4177,0,0,0,0,0,-1.3726,-1.3772,-1.3769,-1.3781,-1.3846,-1.3894,-1.3902,-1.3912,-1.3896,-1.3918,-1.3935,-1.393,-1.4024,-1.4001,-1.4013,-1.4042,-1.4136,-1.414,-1.4144,-1.4163,-1.417,-1.4177,0,0,0,0,0,0,-1.374,-1.3776,-1.3774,-1.3832,-1.386,-1.3893,-1.3922,-1.392,-1.3952,-1.3949,-1.3959,-1.3967,-1.402,-1.4036,-1.401,-1.41,-1.4078,-1.4084,-1.4088,-1.4096,-1.4101,-1.4096,-1.3993,0,0,0,0,0,-1.375,-1.3786,-1.3816,-1.3865,-1.3879,-1.3898,-1.3919,-1.3924,-1.3953,-1.3965,-1.3986,-1.4014,-1.405,-1.4074,-1.4108,-1.4168,-1.4175,-1.4193,-1.4199,-1.4204,-1.421,-1.4243,-1.4251,-1.4159,-1.4159,-1.4159,0,0,-1.377,-1.3795,-1.3817,-1.3868,-1.389,-1.3928,-1.3908,-1.3948,-1.3976,-1.3971,-1.4022,-1.4038,-1.407,-1.4126,-1.4152,-1.4141,-1.4237,-1.4209,-1.4213,-1.4216,-1.4248,-1.4256,-1.4264,-1.4162,-1.4162,-1.4161,0,0,-1.3827,-1.3849,-1.3893,-1.3915,-1.3949,-1.3961,-1.3972,-1.4005,-1.4016,-1.4067,-1.4064,-1.4097,-1.4159,-1.4182,-1.4202,-1.4267,-1.4263,-1.4278,-1.4309,-1.4341,-1.4348,-1.4354,-1.4378,-1.4387,-1.4284,-1.4284,-1.4284,0,-1.3849,-1.3905,-1.3915,-1.3956,-1.3978,-1.3976,-1.4019,-1.4041,-1.4084,-1.4099,-1.4087,-1.4165,-1.4186,-1.4248,-1.4264,-1.428,-1.4292,-1.4274,-1.4346,-1.4353,-1.4359,-1.4382,-1.4391,-1.4285,-1.4285,-1.4285,-1.4285,0,-1.393,-1.3969,-1.4,-1.4043,-1.4068,-1.411,-1.4126,-1.4151,-1.4154,-1.4167,-1.4219,-1.4245,-1.4285,-1.43,-1.4302,-1.4362,-1.4354,-1.4344,-1.4321,-1.4369,-1.4391,-1.44,-1.4288,-1.4287,-1.4287,-1.4286,0,0,-1.3998,-1.4045,-1.4056,-1.4076,-1.4113,-1.4143,-1.4185,-1.4224,-1.4246,-1.4275,-1.4311,-1.4363,-1.4354,-1.4377,-1.4382,-1.441,-1.4461,-1.4396,-1.4397,-1.4408,-1.4528,-1.4536,-1.4546,-1.4458,-1.446,-1.4461,-1.4526,0,-1.4059,-1.4134,-1.4143,-1.4209,-1.4246,-1.4244,-1.428,-1.4307,-1.4321,-1.4354,-1.4369,-1.4406,-1.439,-1.4404,-1.4432,-1.4449,-1.4485,-1.4444,-1.4491,-1.4493,-1.4484,-1.4557,-1.4566,-1.4626,-1.4534,-1.4536,-1.4537,0,-1.414,-1.4173,-1.4243,-1.4275,-1.4291,-1.4323,-1.436,-1.4392,-1.4422,-1.443,-1.4455,-1.4457,-1.45,-1.4476,-1.4535,-1.4507,-1.4527,-1.4538,-1.4541,-1.4546,-1.4518,-1.4565,-1.4645,-1.4654,-1.455,-1.4549,-1.4548,0,-1.4183,-1.4245,-1.4294,-1.4311,-1.435,-1.4373,-1.439,-1.4419,-1.4442,-1.4474,-1.4489,-1.4525,-1.4546,-1.4574,-1.4585,-1.4566,-1.4645,-1.4621,-1.4653,-1.4652,-1.467,-1.4668,-1.4754,-1.4681,-1.4681,-1.4681,-1.4681,0,-1.4251,-1.4294,-1.4314,-1.4345,-1.4393,-1.4403,-1.4451,-1.4467,-1.4492,-1.4526,-1.4526,-1.4558,-1.4571,-1.4605,-1.4614,-1.4662,-1.4671,-1.4679,-1.4681,-1.4679,-1.4678,-1.4693,-1.4689,-1.4684,-1.4683,-1.4683,-1.4682,0,-1.4307,-1.4323,-1.4377,-1.4409,-1.4419,-1.4453,-1.448,-1.451,-1.4523,-1.4566,-1.4576,-1.4598,-1.4637,-1.4651,-1.4699,-1.4706,-1.4762,-1.476,-1.4752,-1.4752,-1.4784,-1.4781,-1.4882,-1.4896,-1.4814,-1.4814,-1.4815,0,-1.4349,-1.4382,-1.4419,-1.4441,-1.4459,-1.4496,-1.452,-1.4531,-1.4556,-1.4593,-1.4618,-1.4657,-1.469,-1.4753,-1.4772,-1.4809,-1.4809,-1.4842,-1.4814,-1.4812,-1.481,-1.4808,-1.4811,-1.4847,-1.4848,-1.4848,-1.4849,0,-1.4423,-1.4429,-1.4463,-1.4501,-1.4529,-1.4559,-1.4587,-1.4606,-1.4622,-1.4649,-1.469,-1.4715,-1.4764,-1.4803,-1.4841,-1.4858,-1.4857,-1.4857,-1.4867,-1.4866,-1.486,-1.4864,-1.4766,-1.4855,-1.4854,-1.4854,-1.4854,-1.4853,-1.4474,-1.4503,-1.4533,-1.4572,-1.4595,-1.4622,-1.4651,-1.4668,-1.4703,-1.4744,-1.4748,-1.4792,-1.4822,-1.4872,-1.4891,-1.4926,-1.4917,-1.493,-1.4934,-1.4937,-1.4939,-1.4854,-1.4932,-1.4932,-1.4932,-1.4932,-1.4932,0,-1.4548,-1.4567,-1.4602,-1.4643,-1.4673,-1.4668,-1.47,-1.4725,-1.4764,-1.4792,-1.4824,-1.487,-1.4909,-1.4931,-1.4969,-1.4992,-1.4992,-1.5002,-1.5001,-1.5005,-1.4945,-1.4933,-1.5001,-1.5001,-1.5001,-1.5001,-1.5001,-1.5001,-1.459,-1.464,-1.4649,-1.471,-1.4729,-1.4773,-1.4791,-1.4816,-1.4838,-1.489,-1.4922,-1.4937,-1.4962,-1.5002,-1.5037,-1.5043,-1.5057,-1.5068,-1.5072,-1.5016,-1.5009,-1.5002,-1.4991,-1.507,-1.507,-1.5129,-1.513,-1.513]}]]